• In Italy
  • List of Countries
  • For 7 days
  • Water Temperature
  • Satellite Maps
  • Weather Map
  • Weather Widgets
  • user-avatar
    Login

    Hourly Weather Aylesbury

    Today, 17 January, Wednesday

    Time Temperature Precipitation Wind Pressure Humidity
    00:00 -2°C° 0 mm 7 mps 738 mmHg 74%
    01:00 -1°C° 0 mm 7 mps 738 mmHg 71%
    02:00 -1°C° 0 mm 8 mps 739 mmHg 68%
    03:00 -1°C° 0 mm 8 mps 739 mmHg 65%
    04:00 -1°C° 0 mm 8 mps 740 mmHg 65%
    05:00 -1°C° 0 mm 9 mps 741 mmHg 65%
    06:00 -1°C° 0 mm 7 mps 742 mmHg 68%
    07:00 -1°C° 0 mm 8 mps 743 mmHg 68%
    08:00 0°C° 0 mm 8 mps 744 mmHg 68%
    09:00 0°C° 0 mm 9 mps 745 mmHg 68%
    10:00 +1°C° 0 mm 9 mps 746 mmHg 66%
    11:00 +2°C° 0 mm 9 mps 746 mmHg 64%
    12:00 +3°C° 0 mm 9 mps 747 mmHg 61%
    13:00 +3°C° 0 mm 9 mps 747 mmHg 62%
    14:00 +2°C° 0 mm 8 mps 748 mmHg 63%
    15:00 +3°C° 0 mm 7 mps 748 mmHg 63%
    16:00 +2°C° 0 mm 6 mps 748 mmHg 67%
    17:00 +2°C° 0 mm 6 mps 748 mmHg 70%
    18:00 +1°C° 0 mm 5 mps 748 mmHg 74%
    19:00 +1°C° 0.1 mm 5 mps 747 mmHg 76%
    20:00 +2°C° 0.1 mm 5 mps 747 mmHg 79%
    21:00 +2°C° 0.1 mm 6 mps 746 mmHg 81%
    22:00 +3°C° 0.7 mm 7 mps 744 mmHg 84%
    23:00 +4°C° 0.7 mm 8 mps 742 mmHg 86%

    Tomorrow, 18 January, Thursday

    Time Temperature Precipitation Wind Pressure Humidity
    00:00 +6°C° 0.7 mm 10 mps 740 mmHg 89%
    01:00 +6°C° 0.2 mm 10 mps 739 mmHg 86%
    02:00 +7°C° 0.2 mm 11 mps 738 mmHg 83%
    03:00 +8°C° 0.2 mm 12 mps 737 mmHg 80%
    04:00 +7°C° 0 mm 11 mps 737 mmHg 78%
    05:00 +4°C° 0 mm 11 mps 738 mmHg 76%
    06:00 +3°C° 0 mm 11 mps 739 mmHg 74%
    07:00 +3°C° 0 mm 9 mps 740 mmHg 76%
    08:00 +2°C° 0 mm 8 mps 741 mmHg 78%
    09:00 +3°C° 0 mm 7 mps 742 mmHg 80%
    10:00 +3°C° 0 mm 7 mps 742 mmHg 76%
    11:00 +4°C° 0 mm 8 mps 742 mmHg 73%
    12:00 +5°C° 0 mm 8 mps 743 mmHg 69%
    13:00 +4°C° 0.1 mm 8 mps 743 mmHg 69%
    14:00 +4°C° 0.1 mm 7 mps 743 mmHg 70%
    15:00 +4°C° 0.1 mm 7 mps 744 mmHg 70%
    16:00 +3°C° 0 mm 6 mps 744 mmHg 72%
    17:00 +2°C° 0 mm 5 mps 745 mmHg 75%
    18:00 +1°C° 0 mm 5 mps 745 mmHg 78%
    19:00 +1°C° 0 mm 5 mps 746 mmHg 78%
    20:00 0°C° 0 mm 5 mps 746 mmHg 78%
    21:00 0°C° 0 mm 4 mps 747 mmHg 79%
    22:00 0°C° 0 mm 4 mps 747 mmHg 79%
    23:00 0°C° 0 mm 4 mps 747 mmHg 80%

    Day after tomorrow, 19 January, Friday

    Time Temperature Precipitation Wind Pressure Humidity
    00:00 -1°C° 0 mm 4 mps 747 mmHg 81%
    01:00 -1°C° 0 mm 4 mps 747 mmHg 82%
    02:00 -1°C° 0 mm 4 mps 747 mmHg 83%
    03:00 -1°C° 0 mm 4 mps 747 mmHg 83%
    04:00 -1°C° 0 mm 4 mps 747 mmHg 83%
    05:00 -1°C° 0 mm 4 mps 747 mmHg 83%
    06:00 -2°C° 0 mm 4 mps 747 mmHg 83%
    07:00 -1°C° 0 mm 4 mps 748 mmHg 81%
    08:00 -1°C° 0 mm 4 mps 748 mmHg 79%
    09:00 -1°C° 0 mm 5 mps 748 mmHg 78%
    10:00 0°C° 0 mm 5 mps 748 mmHg 73%
    11:00 +1°C° 0 mm 6 mps 748 mmHg 68%
    12:00 +2°C° 0 mm 7 mps 748 mmHg 63%
    13:00 +2°C° 0.1 mm 7 mps 748 mmHg 63%
    14:00 +2°C° 0.1 mm 6 mps 748 mmHg 64%
    15:00 +2°C° 0.1 mm 6 mps 748 mmHg 65%
    16:00 +1°C° 0 mm 6 mps 748 mmHg 67%
    17:00 -1°C° 0 mm 6 mps 748 mmHg 69%
    18:00 -1°C° 0 mm 5 mps 748 mmHg 71%
    19:00 -1°C° 0 mm 5 mps 749 mmHg 72%
    20:00 -1°C° 0 mm 5 mps 749 mmHg 73%
    21:00 -1°C° 0 mm 5 mps 749 mmHg 73%
    22:00 -1°C° 0 mm 5 mps 749 mmHg 74%
    23:00 -2°C° 0 mm 5 mps 749 mmHg 75%

    20 January, Saturday

    Time Temperature Precipitation Wind Pressure Humidity
    00:00 -2°C° 0 mm 5 mps 749 mmHg 76%
    01:00 -2°C° 0 mm 5 mps 749 mmHg 78%
    02:00 -2°C° 0 mm 4 mps 749 mmHg 79%
    03:00 -2°C° 0 mm 4 mps 749 mmHg 80%
    04:00 -1°C° 0 mm 3 mps 749 mmHg 81%
    05:00 -1°C° 0 mm 3 mps 749 mmHg 81%
    06:00 -1°C° 0 mm 3 mps 749 mmHg 81%
    07:00 -1°C° 0 mm 2 mps 749 mmHg 81%
    08:00 +1°C° 0 mm 2 mps 749 mmHg 81%
    09:00 +1°C° 0 mm 2 mps 749 mmHg 81%
    10:00 +2°C° 0 mm 2 mps 749 mmHg 76%
    11:00 +2°C° 0 mm 3 mps 749 mmHg 72%
    12:00 +3°C° 0 mm 3 mps 750 mmHg 68%
    13:00 +3°C° 0 mm 3 mps 750 mmHg 70%
    14:00 +3°C° 0 mm 3 mps 750 mmHg 71%
    15:00 +4°C° 0 mm 2 mps 750 mmHg 73%
    16:00 +3°C° 0 mm 2 mps 751 mmHg 77%
    17:00 +2°C° 0 mm 2 mps 752 mmHg 81%
    18:00 +1°C° 0 mm 2 mps 752 mmHg 85%
    19:00 +1°C° 0 mm 2 mps 753 mmHg 84%
    20:00 +2°C° 0 mm 1 mps 754 mmHg 83%
    21:00 +2°C° 0 mm 1 mps 755 mmHg 83%
    22:00 +3°C° 0 mm 1 mps 755 mmHg 82%
    23:00 +3°C° 0 mm 1 mps 755 mmHg 81%

    21 January, Sunday

    Time Temperature Precipitation Wind Pressure Humidity
    00:00 +2°C° 0 mm 2 mps 755 mmHg 81%
    01:00 +2°C° 0.1 mm 2 mps 754 mmHg 81%
    02:00 +2°C° 0.1 mm 2 mps 754 mmHg 82%
    03:00 +1°C° 0.1 mm 3 mps 754 mmHg 83%
    04:00 +1°C° 0.4 mm 4 mps 753 mmHg 84%
    05:00 +1°C° 0.4 mm 5 mps 753 mmHg 86%
    06:00 +1°C° 0.4 mm 6 mps 752 mmHg 88%
    07:00 +2°C° 0.8 mm 6 mps 752 mmHg 90%
    08:00 +3°C° 0.8 mm 6 mps 751 mmHg 93%
    09:00 +4°C° 0.8 mm 6 mps 751 mmHg 95%
    10:00 +5°C° 1.5 mm 6 mps 750 mmHg 95%
    11:00 +8°C° 1.5 mm 7 mps 750 mmHg 95%
    12:00 +9°C° 1.5 mm 7 mps 749 mmHg 94%
    13:00 +9°C° 0.5 mm 7 mps 749 mmHg 94%
    14:00 +9°C° 0.5 mm 7 mps 749 mmHg 93%
    15:00 +10°C° 0.5 mm 6 mps 749 mmHg 93%
    16:00 +10°C° 0.1 mm 6 mps 749 mmHg 93%
    17:00 +9°C° 0.1 mm 6 mps 749 mmHg 94%
    18:00 +9°C° 0.1 mm 5 mps 749 mmHg 94%
    19:00 +9°C° 0.4 mm 5 mps 750 mmHg 94%
    20:00 +9°C° 0.4 mm 5 mps 750 mmHg 95%
    21:00 +9°C° 0.4 mm 5 mps 750 mmHg 95%
    22:00 +9°C° 0 mm 5 mps 750 mmHg 95%
    23:00 +10°C° 0 mm 4 mps 751 mmHg 95%

    22 January, Monday

    Time Temperature Precipitation Wind Pressure Humidity
    00:00 +8°C° 0 mm 4 mps 751 mmHg 96%
    01:00 +9°C° 0 mm 3 mps 752 mmHg 96%
    02:00 +8°C° 0 mm 3 mps 752 mmHg 95%
    03:00 +8°C° 0 mm 3 mps 753 mmHg 95%
    04:00 +7°C° 0 mm 3 mps 753 mmHg 95%
    05:00 +6°C° 0 mm 2 mps 753 mmHg 95%
    06:00 +5°C° 0 mm 2 mps 754 mmHg 95%
    07:00 +5°C° 0 mm 2 mps 754 mmHg 94%
    08:00 +6°C° 0 mm 1 mps 754 mmHg 93%
    09:00 +5°C° 0 mm 1 mps 754 mmHg 93%
    10:00 +6°C° 0 mm 1 mps 754 mmHg 90%
    11:00 +7°C° 0 mm 1 mps 754 mmHg 86%
    12:00 +8°C° 0 mm 1 mps 754 mmHg 83%
    13:00 +8°C° 0 mm 2 mps 754 mmHg 84%
    14:00 +8°C° 0 mm 2 mps 753 mmHg 86%
    15:00 +8°C° 0 mm 2 mps 753 mmHg 87%
    16:00 +8°C° 0 mm 3 mps 752 mmHg 90%
    17:00 +8°C° 0 mm 3 mps 752 mmHg 93%
    18:00 +6°C° 0 mm 4 mps 752 mmHg 95%
    19:00 +7°C° 0.1 mm 4 mps 751 mmHg 96%
    20:00 +8°C° 0.1 mm 4 mps 751 mmHg 96%
    21:00 +9°C° 0.1 mm 5 mps 751 mmHg 96%
    22:00 +9°C° 0.1 mm 5 mps 751 mmHg 96%
    23:00 +9°C° 0.1 mm 5 mps 751 mmHg 95%
    Show more